Juliana Airport, Saint Maartin

10:58 AM AST on August 25, 2016 (GMT -0400)
Juliana Airport

Weather History for 78866 - January, 2014

Change the Weather History Date:

Saturday, January 11, 2014

  Actual Average Record
Temperature  
Mean Temperature 78 °F -  
Max Temperature 82 °F 81 °F - ()
Min Temperature 73 °F 72 °F - ()
Cooling Degree Days 12    
Growing Degree Days 28 (Base 50)    
Moisture  
Dew Point 68 °F    
Average Humidity 72    
Maximum Humidity 83    
Minimum Humidity 50    
Precipitation  
Precipitation 0.20 in 0.07 in - ()
Sea Level Pressure  
Sea Level Pressure 30.07 in    
Wind  
Wind Speed 12 mph ()    
Max Wind Speed 20 mph    
Max Gust Speed 32 mph    
Visibility 7.2 miles    
Events Rain    
T = Trace of Precipitation, MM = Missing Value Source: Averaged Metar Reports

Daily Weather History Graph

Daily Weather History Graph

Search for Another Location

Airport or City:

Trip Planner

Search our weather history database for the weather conditions in past years. The results will help you decide how hot, cold, wet, or windy it might be!

Date:

Astronomy

Jan. 11, 2014 Rise Set
Actual Time 6:46 AM AST 5:54 PM AST
Civil Twilight 6:23 AM AST 6:17 PM AST
Nautical Twilight 5:56 AM AST 6:44 PM AST
Astronomical Twilight 5:29 AM AST 7:11 PM AST
Moon 2:29 PM AST (1/11) 2:54 AM AST (1/11)
Length of Visible Light 11h 54m
Length of Day
11h 08m
Waxing Gibbous, 82% of the Moon is Illuminated
Jan 11
Waxing Gibbous
Jan 16
Full
Jan 24
Last Quarter
Jan 30
New
Feb 6
First Quarter

Hourly Weather History & Observations

Time (AST) Temp. Heat Index Dew Point Humidity Pressure Visibility Wind Dir Wind Speed Gust Speed Precip Events Conditions
12:00 AM 75.2 °F - 69.8 °F 83% 30.06 in 6.2 mi East 10.4 mph - N/A   Scattered Clouds
1:00 AM 77.0 °F - 69.8 °F 78% 30.06 in 6.2 mi East 11.5 mph - N/A   Partly Cloudy
2:00 AM 77 °F - 68 °F 66% 30.06 in 16 mi East 10.4 mph - -   Partly Cloudy
2:00 AM 77.0 °F - 68.0 °F 74% 30.04 in 6.2 mi East 9.2 mph - N/A   Partly Cloudy
3:00 AM 75.2 °F - 69.8 °F 83% 30.04 in 6.2 mi East 9.2 mph - N/A   Mostly Cloudy
4:00 AM 75.2 °F - 68.0 °F 78% 30.04 in 6.2 mi East 15.0 mph - N/A Rain Light Rain Showers
5:00 AM 76 °F - 67 °F 66% 30.05 in 16 mi East 15.0 mph - - Rain Light Rain Showers
5:00 AM 75.2 °F - 66.2 °F 73% 30.04 in 6.2 mi East 15.0 mph - N/A   Partly Cloudy
6:00 AM 75.2 °F - 66.2 °F 73% 30.04 in 6.2 mi ENE 16.1 mph - N/A   Partly Cloudy
7:00 AM 77.0 °F - 66.2 °F 69% 30.06 in 6.2 mi East 12.7 mph - N/A   Partly Cloudy
8:00 AM 78 °F - 67 °F 61% 30.11 in 22 mi East 12.7 mph - -   Partly Cloudy
8:00 AM 78.8 °F - 66.2 °F 65% 30.09 in 6.2 mi East 12.7 mph - N/A   Partly Cloudy
9:00 AM 78.8 °F - 66.2 °F 65% 30.12 in 6.2 mi East 11.5 mph - N/A   Scattered Clouds
10:00 AM 80.6 °F 82.7 °F 66.2 °F 61% 30.12 in 6.2 mi East 15.0 mph - N/A   Scattered Clouds
11:00 AM 82 °F - 67 °F 50% 30.14 in 28 mi East 15.0 mph - -   Partly Cloudy
11:00 AM 80.6 °F 82.7 °F 66.2 °F 61% 30.12 in 6.2 mi East 15.0 mph - N/A   Scattered Clouds
12:00 PM 80.6 °F 82.7 °F 66.2 °F 61% 30.09 in 6.2 mi East 19.6 mph 32.2 mph N/A   Scattered Clouds
1:00 PM 82.4 °F 84.6 °F 66.2 °F 58% 30.06 in 6.2 mi East 19.6 mph - N/A   Scattered Clouds
2:00 PM 82.4 °F 85.4 °F 68.0 °F 62% 30.06 in 6.2 mi East 16.1 mph - N/A Rain Light Rain Showers
3:00 PM 78.8 °F - 69.8 °F 74% 30.04 in 6.2 mi ENE 12.7 mph - N/A Rain Light Rain Showers
4:00 PM 77.0 °F - 69.8 °F 78% 30.04 in 6.2 mi ENE 11.5 mph - N/A   Scattered Clouds
5:00 PM 76 °F - 70 °F 75% 30.06 in 9 mi East 13.8 mph - - Rain Light Rain Showers
5:00 PM 77.0 °F - 69.8 °F 78% 30.04 in 6.2 mi East 13.8 mph - N/A Rain Light Rain Showers
6:00 PM 75.2 °F - 69.8 °F 83% 30.06 in 6.2 mi East 17.3 mph - N/A   Scattered Clouds
7:00 PM 75.2 °F - 69.8 °F 83% 30.06 in 6.2 mi East 12.7 mph - N/A Rain Light Rain Showers
7:11 PM 75.2 °F - 69.8 °F 83% 30.06 in 1.2 mi East 12.7 mph - N/A Rain Heavy Rain Showers
8:00 PM 76 °F - 70 °F 76% 30.09 in 9 mi East 16.1 mph - - Rain Light Rain Showers
8:00 PM 77.0 °F - 69.8 °F 78% 30.09 in 6.2 mi East 16.1 mph - N/A   Scattered Clouds
9:00 PM 75.2 °F - 69.8 °F 83% 30.09 in 6.2 mi East 13.8 mph - N/A   Mostly Cloudy
10:00 PM 75.2 °F - 69.8 °F 83% 30.09 in 6.2 mi East 17.3 mph - N/A   Mostly Cloudy
11:00 PM 76 °F - 69 °F 75% 30.10 in 16 mi ESE 12.7 mph - -   Partly Cloudy
11:00 PM 75.2 °F - 69.8 °F 83% 30.09 in 6.2 mi ESE 12.7 mph - N/A   Scattered Clouds